Location: Unspecified
(33.6682°S, 0.0000°E)
Time: 07:44:57
(UTC+00:00)

Courier 1B - Pass Details

Date: 24 June 2019
Orbit: 963 x 1209 km, 28.3° (Epoch: 21 July)

Event Time Altitude Azimuth Distance (km) Brightness Sun altitude
Exits shadow 03:23:01 17° 38° (NE) 2,534 9.9 -45.2°
Drops below altitude 10° 03:26:24 10° 66° (ENE) 2,971 10.5 -44.5°
Sets 03:30:10 0° 85° (E) 3,882 11.4 -43.7°
